Theta_e
312 311 311 311 310 310 310 310 310 310 310 310 311 310 310 310 309 312 314 311 312 309 310 315 315 314 315 318 319 321 323 326 326 328 329 329 329 329 328 327 328 328 328 329 327
313 312 312 311 310 310 309 310 310 310 310 310 310 310 309 309 311 313 312 309 308 306 314 315 316 315 317 318 319 320 320 321 322 323 323 323 326 327 327 327 325 326 325 325 325
310 313 312 312 311 310 310 309 310 310 310 310 309 308 308 309 318 321 313 310 304 306 315 316 316 316 316 318 320 320 320 320 321 322 322 322 322 322 322 323 324 324 325 324 324
308 308 310 310 311 311 309 309 310 310 310 310 309 307 307 313 325 325 316 311 304 312 317 317 317 316 317 318 319 320 321 320 321 322 321 321 321 321 321 321 322 322 322 322 323
308 307 308 308 307 310 309 309 309 309 309 309 310 308 311 319 320 319 309 309 311 318 316 316 317 318 318 319 319 320 320 320 321 320 319 319 319 320 320 320 320 320 321 321 321
307 307 306 306 306 309 310 307 308 309 309 309 310 308 315 316 315 317 315 314 314 315 316 316 316 318 318 319 319 319 319 319 319 319 319 318 318 318 319 320 320 320 321 321 321
305 307 306 304 306 308 309 310 306 307 310 310 310 310 315 314 314 319 318 319 318 318 315 315 316 316 317 317 318 318 318 318 318 318 318 319 318 319 319 319 319 320 320 321 321
301 303 304 304 306 308 309 310 306 305 308 311 309 313 317 311 310 321 319 314 314 314 317 318 317 317 318 319 318 318 318 319 320 319 318 318 319 319 320 319 319 319 320 320 320
299 301 303 304 306 307 308 308 311 311 309 311 314 316 320 310 309 319 319 315 314 317 318 317 318 319 318 319 319 319 318 319 319 319 318 318 318 319 319 319 320 320 321 321 320
299 302 302 305 307 308 306 313 312 314 313 314 316 320 320 316 311 316 320 316 316 318 318 318 319 319 319 319 319 319 319 319 318 319 318 318 318 319 320 320 321 321 321 320 320
301 300 304 307 308 308 309 316 321 322 318 322 322 320 318 317 313 316 318 316 317 318 319 319 319 319 318 318 318 318 318 319 319 318 318 320 320 320 320 321 321 321 321 322 322
300 303 305 307 308 308 312 317 319 317 319 320 321 320 318 319 316 317 317 317 318 320 320 320 319 319 319 318 318 318 318 319 319 319 320 320 321 321 321 321 321 321 321 321 321
302 304 306 306 308 310 316 316 316 318 321 320 318 319 319 318 319 318 318 318 319 319 320 320 321 319 318 319 319 319 319 320 320 320 320 320 321 321 321 321 321 321 321 321 321
304 306 305 307 311 316 316 315 315 318 325 322 320 319 318 318 319 320 316 319 319 319 320 320 319 319 317 318 319 320 319 318 318 319 320 321 323 323 323 323 323 323 323 322 323
306 306 306 306 312 317 316 315 316 319 335 323 322 319 319 318 319 319 319 318 319 318 317 319 318 317 318 318 318 318 318 319 319 321 322 322 323 323 323 324 324 323 324 322 322
308 307 309 313 311 316 315 315 319 327 329 323 321 321 319 319 318 319 319 318 318 318 318 318 319 318 318 318 318 318 319 320 321 321 324 324 325 325 325 324 324 324 322 321 319
309 309 310 313 318 313 314 318 328 327 321 322 321 321 320 319 318 319 320 320 318 318 318 318 319 319 318 318 319 319 320 323 325 326 326 326 326 326 325 324 323 323 322 319 319
309 311 314 314 314 314 317 324 329 321 322 321 320 320 321 320 319 319 319 320 319 320 321 322 323 320 320 319 319 321 322 325 331 328 327 325 327 326 324 323 322 322 320 319 319
310 317 316 315 315 316 323 326 324 323 321 321 321 321 323 322 320 320 321 320 319 319 320 321 322 320 320 320 320 321 323 322 325 326 328 326 326 325 324 324 321 318 317 319 319
311 318 317 316 317 319 323 322 322 321 320 320 323 323 323 322 323 322 322 321 320 319 318 321 324 322 322 320 320 320 321 324 326 333 330 326 327 326 323 322 320 318 317 317 316
314 322 318 317 318 322 325 325 322 320 320 322 323 322 322 322 322 322 322 320 320 320 320 320 323 325 323 323 322 321 323 322 322 324 332 329 326 323 321 321 320 319 317 316 317
319 324 318 318 326 324 325 324 314 320 320 320 321 321 321 320 321 321 322 321 317 318 319 318 321 325 322 320 321 321 321 321 332 331 328 333 331 323 323 319 317 316 316 317 317
319 319 318 318 327 325 323 321 320 321 321 320 321 320 320 321 323 320 320 319 318 318 321 320 324 326 324 322 320 320 320 320 320 322 325 329 325 321 319 320 319 318 317 317 316
317 321 320 319 320 323 321 321 321 318 317 319 319 319 320 320 319 322 321 319 317 317 315 316 320 324 326 326 324 325 321 320 320 327 325 325 322 321 321 321 317 317 317 316 317
316 320 317 321 320 319 319 319 319 318 317 317 318 318 319 320 319 320 318 319 317 317 317 317 321 319 318 319 319 319 318 318 319 319 321 320 320 319 317 316 316 316 316 318 317
315 315 315 317 316 317 315 318 317 316 316 317 317 317 316 317 317 319 317 317 319 317 317 318 322 319 320 318 318 318 317 316 316 316 317 316 315 315 315 315 315 318 319 318 317
311 311 313 313 315 316 317 316 315 314 314 313 314 315 315 314 314 314 314 316 315 316 316 318 318 322 324 318 317 318 316 315 315 314 314 314 315 317 317 318 319 318 317 316 315
Wind_Speed
22 21 20 18 16 13 13 14 13 12 12 12 12 13 13 15 17 13 14 9 21 12 9 9 14 17 17 13 14 9 13 17 22 24 16 7 9 15 3 8 9 10 8 9 7
23 22 21 19 16 15 12 13 12 12 11 11 11 13 13 14 16 21 19 15 16 16 11 16 15 17 15 17 10 11 12 20 19 15 13 14 17 17 8 13 14 14 12 13 11
24 23 23 20 17 16 14 12 12 11 10 10 11 12 11 9 14 6 18 20 16 19 18 14 14 16 18 13 19 18 17 16 16 9 9 14 16 10 12 17 16 14 13 9 12
28 29 25 24 20 17 15 14 12 10 9 9 10 10 9 9 2 8 5 13 17 18 16 13 14 18 17 17 16 17 17 19 15 7 10 15 15 16 14 16 14 11 11 13 12
26 28 29 28 27 21 17 14 12 11 10 8 8 8 7 9 6 4 10 12 18 13 16 14 15 16 16 15 15 18 17 14 15 13 14 15 15 15 16 12 8 12 11 11 13
25 26 28 29 29 25 20 15 14 11 10 7 7 6 9 13 5 9 11 13 17 14 14 15 10 15 9 13 16 12 18 16 12 15 15 16 16 16 15 8 12 12 12 13 13
24 25 27 29 29 29 24 16 14 14 10 8 8 6 12 7 2 10 12 12 13 14 10 15 11 9 10 11 10 15 13 14 16 15 15 12 17 19 18 13 12 11 11 11 11
25 26 27 29 31 29 27 19 14 13 10 9 7 8 7 3 7 12 12 8 12 11 9 6 10 14 10 4 5 14 15 15 18 20 16 8 16 10 5 4 11 12 10 10 11
27 27 28 29 30 34 30 12 9 8 6 6 6 11 10 6 11 15 13 13 12 9 4 4 10 12 10 11 13 13 14 19 16 10 11 13 13 13 5 9 12 12 12 13 13
29 30 30 30 30 34 21 0 2 8 3 6 12 7 7 11 13 17 15 13 13 10 10 11 8 12 12 13 14 13 17 15 13 10 11 15 17 15 11 12 13 13 12 12 12
29 30 32 32 30 30 2 3 5 4 10 12 1 9 4 4 13 15 16 13 14 13 14 14 13 15 17 17 18 16 13 13 8 9 9 13 16 16 15 12 16 15 15 13 12
29 31 35 37 29 23 4 8 7 3 8 15 15 14 5 4 11 15 18 14 15 16 17 13 15 16 14 11 10 13 14 16 15 12 12 16 19 16 17 16 18 16 16 14 12
32 35 37 32 22 9 12 14 9 6 7 7 2 8 11 12 11 17 19 18 15 17 17 18 12 7 12 13 14 15 16 16 15 12 11 16 21 21 20 24 18 13 13 13 10
35 41 34 30 10 2 9 2 6 4 6 11 8 4 6 12 11 12 20 18 12 15 17 15 16 14 11 16 14 16 15 15 15 14 14 14 14 15 12 12 16 15 12 13 6
39 43 30 11 13 6 5 2 5 4 4 10 8 8 7 12 4 15 16 19 17 14 10 15 15 15 19 18 13 15 12 11 12 16 17 19 13 15 14 17 14 9 16 3 9
39 34 19 3 9 10 8 5 5 6 2 7 6 9 11 14 4 7 12 13 9 15 15 18 7 7 12 12 13 10 11 14 16 16 17 20 18 17 17 11 6 11 2 7 10
41 22 9 5 4 4 3 5 6 6 3 4 5 8 11 12 9 10 12 14 13 10 13 16 19 17 13 14 13 13 12 12 15 14 17 18 17 14 6 7 7 10 10 9 11
41 10 6 4 7 4 7 7 6 5 4 4 4 6 8 4 8 8 7 13 17 16 14 13 14 18 15 22 17 17 16 11 14 16 18 21 17 9 5 5 8 10 6 8 10
26 5 3 5 1 4 7 8 6 10 7 6 9 9 6 5 7 6 11 11 9 10 11 10 18 16 10 11 9 14 16 15 18 19 17 18 25 22 21 13 5 6 10 9 12
17 7 5 4 2 7 6 5 2 4 6 6 10 6 6 5 8 5 6 6 15 13 9 9 16 19 16 6 14 13 14 13 8 9 18 14 15 8 8 5 5 3 9 11 12
6 5 6 2 4 6 8 5 1 5 8 5 9 8 7 11 12 9 7 5 9 7 9 9 6 9 17 13 15 11 13 13 15 13 11 16 11 6 3 8 13 16 11 11 14
6 4 5 3 8 3 6 4 3 6 3 5 5 10 7 8 11 13 13 12 2 2 6 7 7 13 19 17 16 17 16 13 9 13 13 13 14 18 18 6 7 9 14 19 15
5 4 2 6 7 5 6 5 3 7 6 3 4 4 5 7 5 8 9 8 8 9 5 5 6 10 12 19 20 15 15 15 16 18 23 18 15 7 10 11 17 17 14 16 15
4 3 4 2 1 7 3 6 5 3 8 5 6 5 8 9 5 7 7 6 9 9 7 6 13 13 12 6 3 7 13 15 15 13 18 20 25 22 22 23 17 17 16 14 15
1 3 4 2 3 7 5 2 6 3 1 4 4 4 2 4 7 13 12 10 12 13 12 5 12 19 20 21 21 22 22 21 22 23 23 24 26 23 22 22 21 20 14 16 16
5 4 1 6 4 6 3 2 4 2 4 3 8 6 4 7 9 15 12 11 11 3 5 4 5 16 19 20 21 23 22 21 23 24 24 24 25 22 22 19 16 17 17 19 19
2 0 4 2 2 5 2 2 2 3 6 2 6 7 11 11 8 11 12 16 12 10 9 4 5 5 15 17 16 16 18 18 15 17 18 18 17 17 19 17 18 16 17 20 23
Wind_Direction
350 348 342 334 328 321 309 302 299 294 291 292 294 296 295 297 298 272 243 235 210 239 201 209 203 208 216 221 235 240 255 243 243 253 253 252 233 256 220 283 267 270 288 322 326
352 349 346 339 331 325 315 304 299 297 293 292 293 292 293 297 294 264 239 230 219 205 217 198 194 197 207 212 200 217 228 242 255 270 265 267 246 248 225 244 259 247 244 254 256
1 352 349 343 336 327 320 314 304 299 294 292 290 293 297 313 272 163 191 225 218 198 222 212 204 197 215 212 207 210 239 241 251 271 270 278 278 266 262 258 255 267 274 297 278
5 4 0 355 344 331 321 312 309 301 295 292 290 292 297 283 318 78 184 184 184 188 223 212 210 205 219 214 220 236 229 243 265 287 236 255 258 260 259 262 275 294 285 272 266
359 0 0 358 358 341 322 312 301 299 293 289 292 295 300 226 256 114 146 160 165 193 206 204 204 212 219 213 224 218 247 231 250 248 256 269 263 265 264 259 259 263 261 256 259
354 355 356 356 353 348 330 310 303 291 283 274 276 275 251 253 80 142 149 156 177 199 210 214 222 224 262 240 216 210 241 249 240 248 238 246 255 257 248 231 250 244 257 260 258
350 350 351 351 350 348 335 307 293 291 280 273 268 255 265 250 181 166 170 184 192 209 207 219 244 200 232 224 237 247 253 237 245 241 245 251 262 252 240 246 250 254 251 259 263
348 347 347 347 347 343 336 308 284 279 267 261 258 252 264 154 206 190 188 195 185 204 225 190 233 223 235 181 212 232 230 249 228 216 228 214 259 263 108 196 228 236 259 251 255
343 344 343 344 344 340 332 308 297 274 222 228 239 229 257 155 207 197 195 181 181 191 200 197 230 231 204 228 226 209 244 227 244 173 241 198 258 210 165 232 255 260 251 246 237
340 340 341 341 341 339 334 121 7 98 161 225 265 253 247 226 186 190 197 214 188 197 204 218 223 225 227 217 233 223 215 239 253 185 204 249 240 253 224 239 246 245 247 253 255
339 339 337 336 337 336 332 161 192 189 216 248 237 263 116 111 160 190 188 208 200 211 222 202 225 223 234 222 258 293 287 296 263 232 243 263 275 271 267 254 252 250 253 251 246
337 338 333 327 327 328 234 254 359 1 292 233 249 261 233 205 185 191 181 202 203 218 216 222 232 253 241 266 261 260 258 258 261 265 259 268 267 268 262 256 255 263 266 261 259
335 335 331 320 317 289 230 267 298 302 269 164 239 232 218 214 225 192 192 207 204 224 227 234 233 200 269 243 240 240 251 263 265 275 260 265 265 253 247 245 249 267 266 268 272
336 339 333 323 304 240 267 6 224 292 272 140 177 150 198 206 228 202 197 215 236 240 232 245 241 241 251 241 232 246 240 243 255 262 262 266 282 274 276 259 217 217 237 243 251
339 344 329 294 303 254 39 316 309 232 256 138 118 127 169 203 67 199 193 216 241 234 253 240 229 242 236 238 237 256 275 272 269 267 277 266 264 266 252 248 234 232 237 245 267
339 343 338 95 223 264 294 287 249 238 260 122 134 154 162 209 200 150 196 243 278 274 254 261 274 277 252 234 240 279 265 261 264 262 259 261 261 268 261 276 266 201 276 327 317
337 331 332 283 11 332 251 229 232 254 109 136 124 194 164 183 179 181 198 210 223 215 246 257 255 252 229 259 243 224 256 266 260 246 256 257 247 258 310 284 223 274 308 310 301
336 321 280 270 279 267 240 228 264 48 22 52 274 234 220 184 215 201 219 212 224 271 286 273 257 229 244 225 250 256 246 258 269 273 287 295 279 270 291 264 278 264 284 282 288
344 304 285 352 180 228 255 234 6 17 14 334 302 257 226 234 246 234 255 251 244 258 287 280 274 283 243 293 279 261 253 296 294 283 279 276 279 276 269 215 236 246 241 257 263
328 284 59 338 244 252 256 286 347 12 324 300 288 312 299 290 215 241 253 265 251 252 282 295 294 278 272 255 254 257 286 278 259 271 266 267 279 270 341 295 264 255 270 283 283
289 258 60 319 252 237 260 34 24 80 330 325 327 308 318 317 301 255 233 251 226 235 223 249 253 273 298 243 258 243 246 248 265 256 265 280 273 308 262 314 304 305 300 301 288
278 260 49 287 244 216 291 35 29 281 254 289 296 309 299 297 295 284 271 250 39 270 272 251 263 262 260 265 269 268 270 270 248 269 251 264 267 276 283 284 288 277 268 264 291
301 299 91 269 273 209 98 261 256 308 315 313 280 307 301 289 292 271 287 305 297 257 216 249 230 266 255 237 232 245 265 268 262 267 259 268 269 241 237 266 244 267 289 303 311
283 267 148 241 358 311 336 259 282 110 292 299 283 294 293 277 282 283 299 356 340 296 39 282 265 258 273 287 169 281 278 277 275 265 269 264 283 281 282 286 299 302 296 305 302
304 74 4 307 106 321 281 319 264 271 345 275 223 291 302 259 260 251 261 292 298 256 273 325 262 261 265 277 283 286 281 273 264 261 262 276 277 282 299 305 299 296 313 307 294
323 339 288 294 303 275 181 159 292 140 272 312 284 169 270 266 266 300 301 286 276 256 285 185 267 274 268 261 265 268 271 269 269 274 275 280 283 285 282 290 303 353 325 306 312
19 234 277 28 229 269 358 352 155 279 262 344 321 290 294 302 313 273 247 271 247 253 266 255 248 259 258 256 262 263 260 265 276 264 268 276 299 326 311 328 332 319 302 306 307